ICND181 LIRN-LIBP

Flight info

Callsign ICND181
Flight time 1h 1m
Altitude 8000
Route TEA DCT ERIKA DCT EKMIL
Aircraft DA42/L-SBDGRY/S

Departure

Time 2026-04-15 05:54
Airport Naples International Airport (LIRN)

Arrival

Time 2026-04-15 06:55
Airport Abruzzo Airport (LIBP)
Time Latitude Longitude Altitude Speed Heading
2026-04-15 05:46 40.88245 14.28803 274 ft 0 kts 327°
2026-04-15 05:49 40.88246 14.28802 274 ft 0 kts 326°
2026-04-15 05:49 40.88254 14.28799 273 ft 4 kts 358°
2026-04-15 05:49 40.88232 14.28865 272 ft 14 kts 128°
2026-04-15 05:49 40.88276 14.29004 267 ft 22 kts 51°
2026-04-15 05:50 40.88387 14.29194 258 ft 29 kts 53°
2026-04-15 05:50 40.88517 14.29419 253 ft 31 kts 54°
2026-04-15 05:50 40.88696 14.29523 249 ft 1 kts 326°
2026-04-15 05:51 40.88702 14.29518 249 ft 0 kts 326°
2026-04-15 05:52 40.88734 14.29490 250 ft 10 kts 328°
2026-04-15 05:52 40.88814 14.29522 249 ft 16 kts 57°
2026-04-15 05:52 40.88833 14.29560 249 ft 5 kts 58°
2026-04-15 05:53 40.89005 14.29913 237 ft 76 kts 58°
2026-04-15 05:53 40.89232 14.30638 298 ft 94 kts 84°
2026-04-15 05:53 40.88994 14.31531 342 ft 118 kts 122°
2026-04-15 05:53 40.88514 14.32509 441 ft 136 kts 118°
2026-04-15 05:54 40.88005 14.33630 637 ft 141 kts 126°
2026-04-15 05:54 40.87167 14.34302 713 ft 151 kts 178°
2026-04-15 05:54 40.86197 14.33854 928 ft 148 kts 224°
2026-04-15 05:54 40.85746 14.32659 1032 ft 154 kts 261°
2026-04-15 05:55 40.85187 14.31386 938 ft 169 kts 220°
2026-04-15 05:55 40.84098 14.30792 1072 ft 167 kts 195°
2026-04-15 05:55 40.82986 14.30395 1211 ft 165 kts 194°
2026-04-15 05:55 40.81878 14.30026 1357 ft 164 kts 193°
2026-04-15 05:56 40.80785 14.29665 1504 ft 163 kts 193°
2026-04-15 05:56 40.79692 14.29295 1649 ft 163 kts 194°
2026-04-15 05:56 40.78587 14.28938 1799 ft 163 kts 194°
2026-04-15 05:56 40.77481 14.28578 1944 ft 163 kts 189°
2026-04-15 05:57 40.76406 14.28911 2065 ft 162 kts 142°
2026-04-15 05:57 40.75832 14.30105 2192 ft 155 kts 97°
2026-04-15 05:57 40.76058 14.31426 2319 ft 150 kts 52°
2026-04-15 05:57 40.76919 14.32116 2449 ft 147 kts
2026-04-15 05:58 40.77936 14.32009 2607 ft 147 kts 353°
2026-04-15 05:58 40.78946 14.31773 2755 ft 148 kts 352°
2026-04-15 05:58 40.79964 14.31541 2907 ft 149 kts 352°
2026-04-15 05:58 40.80969 14.31319 3055 ft 148 kts 351°
2026-04-15 05:59 40.81994 14.31088 3205 ft 148 kts 350°
2026-04-15 05:59 40.83014 14.30852 3354 ft 148 kts 350°
2026-04-15 05:59 40.84027 14.30618 3501 ft 149 kts 351°
2026-04-15 05:59 40.85020 14.30377 3722 ft 143 kts 351°
2026-04-15 06:00 40.85994 14.30166 3967 ft 141 kts 351°
2026-04-15 06:00 40.86962 14.29926 4214 ft 141 kts 352°
2026-04-15 06:00 40.87918 14.29710 4460 ft 140 kts 352°
2026-04-15 06:00 40.88879 14.29483 4683 ft 142 kts 352°
2026-04-15 06:01 40.89869 14.29258 4833 ft 147 kts 352°
2026-04-15 06:01 40.90892 14.29021 4986 ft 150 kts 352°
2026-04-15 06:01 40.91922 14.28783 5138 ft 152 kts 352°
2026-04-15 06:01 40.92966 14.28544 5287 ft 153 kts 352°
2026-04-15 06:02 40.94017 14.28299 5435 ft 154 kts 352°
2026-04-15 06:02 40.95078 14.28056 5585 ft 154 kts 352°
2026-04-15 06:02 40.96081 14.27828 5725 ft 155 kts 352°
2026-04-15 06:02 40.97144 14.27587 5873 ft 155 kts 351°
2026-04-15 06:03 40.98204 14.27343 6020 ft 155 kts 351°
2026-04-15 06:03 40.99269 14.27101 6168 ft 155 kts 351°
2026-04-15 06:03 41.00333 14.26847 6314 ft 155 kts 351°
2026-04-15 06:03 41.01393 14.26599 6479 ft 155 kts 351°
2026-04-15 06:04 41.02452 14.26353 6636 ft 155 kts 351°
2026-04-15 06:04 41.03494 14.25971 6767 ft 156 kts 338°
2026-04-15 06:04 41.04448 14.25261 6888 ft 157 kts 328°
2026-04-15 06:04 41.05328 14.24410 7003 ft 158 kts 324°
2026-04-15 06:05 41.06188 14.23491 7087 ft 160 kts 323°
2026-04-15 06:05 41.07040 14.22551 7148 ft 161 kts 323°
2026-04-15 06:05 41.07899 14.21595 7234 ft 160 kts 322°
2026-04-15 06:05 41.08752 14.20638 7295 ft 161 kts 322°
2026-04-15 06:06 41.09602 14.19687 7370 ft 160 kts 322°
2026-04-15 06:06 41.10453 14.18732 7449 ft 160 kts 322°
2026-04-15 06:06 41.11306 14.17818 7559 ft 159 kts 324°
2026-04-15 06:06 41.12159 14.16838 7614 ft 161 kts 322°
2026-04-15 06:07 41.13002 14.15878 7684 ft 162 kts 322°
2026-04-15 06:07 41.13859 14.14909 7757 ft 162 kts 322°
2026-04-15 06:07 41.14716 14.13944 7831 ft 162 kts 322°
2026-04-15 06:07 41.15584 14.12967 7905 ft 162 kts 322°
2026-04-15 06:08 41.16439 14.12005 7977 ft 162 kts 322°
2026-04-15 06:08 41.17297 14.11040 8049 ft 162 kts 322°
2026-04-15 06:08 41.18166 14.10061 8122 ft 163 kts 322°
2026-04-15 06:08 41.19025 14.09094 8193 ft 163 kts 322°
2026-04-15 06:09 41.19884 14.08126 8263 ft 163 kts 322°
2026-04-15 06:09 41.20745 14.07157 8333 ft 163 kts 322°
2026-04-15 06:09 41.21608 14.06183 8403 ft 163 kts 322°
2026-04-15 06:09 41.22472 14.05209 8472 ft 163 kts 322°
2026-04-15 06:10 41.23340 14.04231 8541 ft 163 kts 322°
2026-04-15 06:10 41.24211 14.03248 8610 ft 163 kts 322°
2026-04-15 06:10 41.25070 14.02278 8677 ft 164 kts 322°
2026-04-15 06:10 41.25938 14.01298 8745 ft 164 kts 322°
2026-04-15 06:11 41.26802 14.00321 8811 ft 164 kts 322°
2026-04-15 06:11 41.27671 13.99340 8878 ft 164 kts 322°
2026-04-15 06:11 41.28547 13.98349 8944 ft 164 kts 322°
2026-04-15 06:11 41.29509 13.97600 8992 ft 162 kts 347°
2026-04-15 06:12 41.30629 13.97471 9104 ft 160 kts
2026-04-15 06:12 41.31721 13.97558 9348 ft 155 kts
2026-04-15 06:12 41.32771 13.97708 9640 ft 149 kts
2026-04-15 06:12 41.33790 13.97873 9934 ft 146 kts
2026-04-15 06:13 41.34772 13.98040 10225 ft 143 kts
2026-04-15 06:13 41.35750 13.98212 10522 ft 141 kts
2026-04-15 06:13 41.36718 13.98384 10815 ft 140 kts
2026-04-15 06:13 41.37708 13.98562 10900 ft 151 kts
2026-04-15 06:14 41.38806 13.98762 10912 ft 163 kts
2026-04-15 06:14 41.39941 13.98969 10911 ft 170 kts
2026-04-15 06:14 41.41143 13.99192 10908 ft 175 kts
2026-04-15 06:14 41.42354 13.99416 10906 ft 178 kts
2026-04-15 06:15 41.43593 13.99645 10904 ft 180 kts
2026-04-15 06:15 41.44830 13.99875 10903 ft 181 kts
2026-04-15 06:15 41.46066 14.00104 10903 ft 181 kts
2026-04-15 06:15 41.47314 14.00336 10903 ft 182 kts
2026-04-15 06:16 41.48559 14.00567 10898 ft 179 kts
2026-04-15 06:16 41.49774 14.00793 10896 ft 173 kts
2026-04-15 06:16 41.50957 14.01013 10895 ft 170 kts
2026-04-15 06:16 41.52116 14.01228 10897 ft 167 kts
2026-04-15 06:17 41.53256 14.01439 10899 ft 166 kts
2026-04-15 06:17 41.54398 14.01651 10900 ft 165 kts
2026-04-15 06:17 41.55522 14.01860 10901 ft 164 kts
2026-04-15 06:17 41.56649 14.02069 10901 ft 164 kts
2026-04-15 06:18 41.57782 14.02280 10902 ft 164 kts
2026-04-15 06:18 41.58910 14.02490 10902 ft 164 kts
2026-04-15 06:18 41.60039 14.02700 10902 ft 163 kts
2026-04-15 06:18 41.61167 14.02910 10903 ft 163 kts
2026-04-15 06:19 41.62285 14.03118 10907 ft 163 kts
2026-04-15 06:19 41.63400 14.03326 10910 ft 163 kts
2026-04-15 06:19 41.64523 14.03535 10914 ft 163 kts
2026-04-15 06:19 41.65658 14.03747 10918 ft 163 kts
2026-04-15 06:20 41.66779 14.03956 10922 ft 163 kts
2026-04-15 06:20 41.67897 14.04165 10926 ft 163 kts
2026-04-15 06:20 41.69016 14.04374 10930 ft 163 kts
2026-04-15 06:20 41.70126 14.04582 10935 ft 163 kts
2026-04-15 06:21 41.71262 14.04794 10939 ft 163 kts
2026-04-15 06:21 41.72384 14.05001 10944 ft 163 kts
2026-04-15 06:21 41.73502 14.05201 10949 ft 163 kts
2026-04-15 06:21 41.74618 14.05398 10954 ft 163 kts
2026-04-15 06:22 41.75747 14.05611 10959 ft 163 kts
2026-04-15 06:22 41.76865 14.05822 10963 ft 163 kts
2026-04-15 06:22 41.77982 14.06032 10969 ft 163 kts
2026-04-15 06:22 41.79114 14.06243 10972 ft 163 kts
2026-04-15 06:23 41.80229 14.06453 10976 ft 163 kts
2026-04-15 06:23 41.81355 14.06663 10979 ft 163 kts
2026-04-15 06:23 41.82489 14.06877 10983 ft 163 kts
2026-04-15 06:23 41.83614 14.07087 10986 ft 163 kts
2026-04-15 06:24 41.84741 14.07299 10989 ft 164 kts
2026-04-15 06:24 41.85865 14.07509 10993 ft 164 kts
2026-04-15 06:24 41.86977 14.07730 10995 ft 164 kts
2026-04-15 06:24 41.88114 14.07953 10998 ft 164 kts
2026-04-15 06:25 41.89151 14.08532 11004 ft 168 kts 40°
2026-04-15 06:25 41.89994 14.09603 11008 ft 168 kts 40°
2026-04-15 06:25 41.90839 14.10681 11011 ft 169 kts 40°
2026-04-15 06:25 41.91689 14.11768 11011 ft 169 kts 40°
2026-04-15 06:26 41.92553 14.12869 10984 ft 171 kts 40°
2026-04-15 06:26 41.93412 14.13963 10882 ft 174 kts 40°
2026-04-15 06:26 41.94289 14.15081 10751 ft 172 kts 40°
2026-04-15 06:26 41.95174 14.16138 10619 ft 170 kts 34°
2026-04-15 06:27 41.96202 14.16886 10466 ft 167 kts 13°
2026-04-15 06:27 41.97322 14.17336 10350 ft 166 kts 15°
2026-04-15 06:27 41.98412 14.17801 10224 ft 166 kts 15°
2026-04-15 06:27 41.99519 14.18270 10094 ft 165 kts 14°
2026-04-15 06:28 42.00612 14.18741 9967 ft 165 kts 15°
2026-04-15 06:28 42.01702 14.19214 9841 ft 165 kts 15°
2026-04-15 06:28 42.02783 14.19680 9714 ft 165 kts 15°
2026-04-15 06:28 42.03875 14.20157 9588 ft 165 kts 15°
2026-04-15 06:29 42.04972 14.20635 9460 ft 165 kts 15°
2026-04-15 06:29 42.06083 14.20623 9329 ft 161 kts 347°
2026-04-15 06:29 42.07214 14.20596 9165 ft 162 kts 347°
2026-04-15 06:29 42.08263 14.20084 9049 ft 160 kts 338°
2026-04-15 06:30 42.09290 14.19530 8928 ft 160 kts 337°
2026-04-15 06:30 42.10314 14.18975 8804 ft 160 kts 337°
2026-04-15 06:30 42.11356 14.18408 8679 ft 160 kts 337°
2026-04-15 06:30 42.12380 14.17853 8556 ft 159 kts 337°
2026-04-15 06:31 42.13416 14.17292 8393 ft 162 kts 336°
2026-04-15 06:31 42.14457 14.16726 8223 ft 163 kts 336°
2026-04-15 06:31 42.15509 14.16154 8056 ft 164 kts 336°
2026-04-15 06:31 42.16546 14.15590 8012 ft 157 kts 336°
2026-04-15 06:32 42.17548 14.15041 7918 ft 156 kts 337°
2026-04-15 06:32 42.18553 14.14499 7817 ft 156 kts 339°
2026-04-15 06:32 42.19616 14.14206 7716 ft 156 kts 353°
2026-04-15 06:32 42.20701 14.14208 7617 ft 157 kts
2026-04-15 06:33 42.21792 14.14341 7518 ft 158 kts
2026-04-15 06:33 42.22886 14.14522 7420 ft 158 kts
2026-04-15 06:33 42.23984 14.14722 7319 ft 158 kts
2026-04-15 06:33 42.25066 14.14924 7223 ft 158 kts
2026-04-15 06:34 42.26164 14.15131 7110 ft 159 kts
2026-04-15 06:34 42.27173 14.15717 6979 ft 165 kts 39°
2026-04-15 06:34 42.27861 14.16981 6867 ft 168 kts 61°
2026-04-15 06:34 42.28279 14.18440 6745 ft 169 kts 70°
2026-04-15 06:35 42.28604 14.19971 6620 ft 170 kts 73°
2026-04-15 06:35 42.28899 14.21531 6495 ft 170 kts 74°
2026-04-15 06:35 42.29182 14.23075 6372 ft 170 kts 74°
2026-04-15 06:35 42.29463 14.24613 6250 ft 169 kts 74°
2026-04-15 06:36 42.29747 14.26162 6125 ft 169 kts 75°
2026-04-15 06:36 42.30028 14.27709 6028 ft 168 kts 75°
2026-04-15 06:36 42.30304 14.29225 6017 ft 169 kts 75°
2026-04-15 06:36 42.30587 14.30778 6013 ft 171 kts 75°
2026-04-15 06:37 42.30870 14.32342 6012 ft 172 kts 74°
2026-04-15 06:37 42.31157 14.33923 6012 ft 172 kts 74°
2026-04-15 06:37 42.31443 14.35491 6011 ft 173 kts 74°
2026-04-15 06:37 42.31728 14.37061 6012 ft 173 kts 74°
2026-04-15 06:38 42.32017 14.38667 5892 ft 171 kts 74°
2026-04-15 06:38 42.32292 14.40177 5753 ft 164 kts 75°
2026-04-15 06:38 42.32555 14.41642 5627 ft 159 kts 74°
2026-04-15 06:38 42.32816 14.43078 5553 ft 157 kts 74°
2026-04-15 06:39 42.33077 14.44524 5483 ft 158 kts 74°
2026-04-15 06:39 42.33340 14.45965 5410 ft 159 kts 74°
2026-04-15 06:39 42.33601 14.47425 5338 ft 159 kts 75°
2026-04-15 06:39 42.33868 14.48884 5188 ft 161 kts 75°
2026-04-15 06:40 42.34132 14.50336 5009 ft 158 kts 71°
2026-04-15 06:40 42.34776 14.51479 4822 ft 153 kts 34°
2026-04-15 06:40 42.35704 14.52126 4644 ft 150 kts 17°
2026-04-15 06:40 42.36713 14.52508 4468 ft 150 kts 10°
2026-04-15 06:41 42.37724 14.52788 4300 ft 150 kts
2026-04-15 06:41 42.38758 14.53039 4127 ft 152 kts
2026-04-15 06:41 42.39787 14.53278 4030 ft 148 kts
2026-04-15 06:41 42.40791 14.53508 4006 ft 141 kts
2026-04-15 06:42 42.41736 14.53722 4001 ft 136 kts
2026-04-15 06:42 42.42649 14.53927 4008 ft 132 kts
2026-04-15 06:42 42.43546 14.54131 4006 ft 129 kts
2026-04-15 06:42 42.44429 14.54329 4008 ft 127 kts
2026-04-15 06:43 42.45290 14.54374 4015 ft 123 kts 347°
2026-04-15 06:43 42.46119 14.54129 4010 ft 122 kts 342°
2026-04-15 06:43 42.46941 14.53826 4017 ft 125 kts 341°
2026-04-15 06:43 42.47823 14.53476 4022 ft 137 kts 341°
2026-04-15 06:44 42.48757 14.53098 4022 ft 144 kts 341°
2026-04-15 06:44 42.49736 14.52698 4016 ft 149 kts 341°
2026-04-15 06:44 42.50737 14.52287 4014 ft 152 kts 341°
2026-04-15 06:44 42.51762 14.51866 4013 ft 153 kts 341°
2026-04-15 06:45 42.52784 14.51444 3982 ft 156 kts 341°
2026-04-15 06:45 42.53820 14.51017 3960 ft 157 kts 341°
2026-04-15 06:45 42.54781 14.50327 3923 ft 156 kts 318°
2026-04-15 06:45 42.55544 14.49309 3869 ft 154 kts 310°
2026-04-15 06:46 42.56233 14.48210 3816 ft 152 kts 308°
2026-04-15 06:46 42.56891 14.47098 3764 ft 150 kts 307°
2026-04-15 06:46 42.57536 14.45983 3706 ft 150 kts 307°
2026-04-15 06:46 42.58178 14.44870 3527 ft 152 kts 307°
2026-04-15 06:47 42.58834 14.43728 3351 ft 152 kts 307°
2026-04-15 06:47 42.59479 14.42602 3179 ft 153 kts 307°
2026-04-15 06:47 42.60131 14.41465 3036 ft 151 kts 306°
2026-04-15 06:47 42.60759 14.40369 3010 ft 144 kts 306°
2026-04-15 06:48 42.61239 14.39197 2989 ft 141 kts 277°
2026-04-15 06:48 42.61046 14.37937 3012 ft 138 kts 246°
2026-04-15 06:48 42.60517 14.36838 2860 ft 138 kts 230°
2026-04-15 06:48 42.59844 14.35912 2703 ft 136 kts 224°
2026-04-15 06:49 42.59135 14.35082 2551 ft 134 kts 221°
2026-04-15 06:49 42.58403 14.34279 2407 ft 137 kts 220°
2026-04-15 06:49 42.57641 14.33465 2260 ft 139 kts 219°
2026-04-15 06:50 42.56165 14.31903 2017 ft 128 kts 219°
2026-04-15 06:50 42.55460 14.31156 2010 ft 126 kts 219°
2026-04-15 06:50 42.54783 14.30432 2009 ft 125 kts 219°
2026-04-15 06:50 42.54095 14.29700 2009 ft 124 kts 219°
2026-04-15 06:51 42.53423 14.28993 2009 ft 123 kts 219°
2026-04-15 06:51 42.52747 14.28286 2010 ft 122 kts 219°
2026-04-15 06:51 42.52066 14.27576 2010 ft 122 kts 219°
2026-04-15 06:51 42.51369 14.26849 1886 ft 131 kts 219°
2026-04-15 06:52 42.50624 14.26073 1727 ft 138 kts 218°
2026-04-15 06:52 42.49852 14.25270 1546 ft 141 kts 218°
2026-04-15 06:52 42.49078 14.24467 1358 ft 141 kts 218°
2026-04-15 06:52 42.48294 14.23653 1165 ft 139 kts 218°
2026-04-15 06:53 42.47551 14.22884 983 ft 128 kts 218°
2026-04-15 06:53 42.46890 14.22199 802 ft 108 kts 218°
2026-04-15 06:53 42.46372 14.21664 649 ft 86 kts 218°
2026-04-15 06:53 42.45923 14.21198 558 ft 79 kts 218°
2026-04-15 06:54 42.45484 14.20742 468 ft 79 kts 218°
2026-04-15 06:54 42.45046 14.20287 370 ft 80 kts 218°
2026-04-15 06:54 42.44598 14.19823 272 ft 79 kts 218°
2026-04-15 06:54 42.44161 14.19370 166 ft 79 kts 219°
2026-04-15 06:55 42.43731 14.18914 79 ft 74 kts 221°
2026-04-15 06:55 42.43346 14.18470 42 ft 70 kts 217°
2026-04-15 06:55 42.42979 14.18165 37 ft 50 kts 216°
2026-04-15 06:55 42.42751 14.17942 39 ft 32 kts 196°
2026-04-15 06:56 42.42569 14.17937 43 ft 22 kts 118°
2026-04-15 06:56 42.42644 14.18088 40 ft 21 kts 37°
2026-04-15 06:56 42.42777 14.18223 38 ft 25 kts 37°
2026-04-15 06:56 42.42927 14.18376 37 ft 27 kts 36°
2026-04-15 06:57 42.43056 14.18551 37 ft 22 kts 64°
2026-04-15 06:57 42.43064 14.18600 37 ft 0 kts 103°